Regional Weather Roundup
Issued by NWS Sioux Falls, SD

Home | Current Version | Previous Version | Graphics & Text | Print | Product List | Glossary Off
Versions: 1 2 3 4 5 6 7 8 9 10 11 12 13 14 15 16 17 18 19 20 21 22 23 24 25 26 27 28 29 30 31 32 33 34 35 36 37 38 39 40 41 42 43 44 45 46 47 48 49 50

000
ASUS43 KFSD 220202
RWRFSD

WEATHER ROUNDUP FOR SE SOUTH DAKOTA/SW MINNESOTA/NW IOWA
NATIONAL WEATHER SERVICE SIOUX FALLS SD
800 PM CST SUN DEC 21 2014

NOTE: "FAIR" INDICATES FEW OR NO CLOUDS BELOW 12,000 FEET WITH NO
SIGNIFICANT WEATHER AND OR OBSTRUCTIONS TO VISIBILITY.


SDZ038>040-050-052>070-220300-
SOUTHEAST SOUTH DAKOTA

CITY           SKY/WX    TMP DP  RH WIND       PRES   REMARKS
CHAMBERLAIN    NOT AVBL
HURON          MOCLDY    35  32  88 SE14      29.47S WCI  26
MADISON        CLOUDY    36  36 100 S14       29.53F FOG
MITCHELL       CLOUDY    37  35  92 S15       29.48F
SIOUX FALLS    CLOUDY    38  37  97 S17G26    29.56F
WINNER         MOCLDY    41  31  67 S14       29.41R
YANKTON        CLOUDY    41  37  87 SE15      29.55F
$$

MNZ071-072-080-081-089-090-097-098-220300-
SOUTHWEST MINNESOTA

CITY           SKY/WX    TMP DP  RH WIND       PRES   REMARKS
FAIRMONT       CLOUDY    37  34  87 S16       29.68S
JACKSON        CLOUDY    37  36  93 S16G26    29.66F FOG
LUVERNE        CLOUDY    37  36  93 S15       29.60F FOG
MARSHALL       CLOUDY    37  34  87 S20G26    29.59S
MONTEVIDEO     CLOUDY    36  36 100 S9        29.62S FOG
PIPESTONE      DRIZZLE   36  36 100 S17       29.57F
REDWOOD FALLS  CLOUDY    38  36  92 S14       29.64S FOG
TRACY          CLOUDY    38  37  94 S21G26    29.61R FOG
WINDOM         CLOUDY    37  37 100 S18       29.64S FOG
WORTHINGTON    CLOUDY    37 -11  12 S16       29.63F
$$

IAZ001>003-012>014-020>022-031-032-NEZ013-014-SDZ071-220300-
NORTHWEST IOWA

CITY           SKY/WX    TMP DP  RH WIND       PRES   REMARKS
CHEROKEE       CLOUDY    38  38 100 S14       29.66F FOG
DENISON        CLOUDY    41  41 100 S15G22    29.67F FOG
ESTHERVILLE    CLOUDY    37  36  96 S20       29.67S FOG
SIOUX CITY     CLOUDY    41  39  93 S10       29.64F FOG
SPENCER        CLOUDY    38  36  92 S18       29.66F FOG
$$

ABBREVIATIONS USED IN REMARKS
   TC - TEMPERATURE IN CELSIUS
  WCI - WIND CHILL INDEX
   HX - HEAT INDEX
  VSB - VISIBILITY



USA.gov is the U.S. government's official web portal to all federal, state and local government web resources and services.